Location: Br�znic
(45.9167°N, 22.6500°E)
Time: 15:13:26
(UTC+00:00)

ATLAS CENTAUR R/B - Pass Details

Date: 03 March 2021
Orbit: 475 x 670 km, 64.7° (Epoch: 30 March)

Event Time Altitude Azimuth Distance (km) Brightness Sun altitude
Rises 18:19:52 0° 233° (SW) 2,520 5.3 -21.7°
Reaches altitude 10° 18:22:04 10° 241° (WSW) 1,641 4.3 -22.1°
Maximum altitude 18:25:31 40° 312° (NW) 714 2.3 -22.7°
Enters shadow 18:27:02 26° 4° (N) 971 2.6 -22.9°
